Location: Star Dogged Moon Observatory
(29.7756°N, 82.0783°W)
Time: 11:43:37
(UTC-05:00)

Amateur Radio Satellites - All Passes

Search period start: 18 December 2017 11:13
Search period end: 19 December 2017 11:13
Location: Star Dogged Moon Observatory, 29.7756°N, 82.0783°W

Satellite Date Start Highest point End Downlink Frequencies (MHz)
Time Altitude Azimuth
EO-79 18 Dec 11:14:03 11:17:41 30° 73° (ENE) 11:21:21 145.935-145.965
AIST 2D 18 Dec 11:35:53 11:38:56 28° 263° (W) 11:42:00 435.315
POLYITAN 1 18 Dec 11:37:41 11:41:48 61° 76° (ENE) 11:45:56 437.675
SPROUT 18 Dec 12:00:32 12:03:27 18° 96° (E) 12:06:22 437.525
DUCHIFAT 1 18 Dec 12:01:53 12:06:02 86° 252° (WSW) 12:10:12 145.980
Oscar 19 18 Dec 12:02:51 12:04:38 12° 65° (ENE) 12:06:25 437.125/150
QB50P2 18 Dec 12:03:49 12:07:53 51° 260° (W) 12:11:59 145.880/145.840
ESTCUBE 1 18 Dec 12:12:42 12:17:09 58° 284° (WNW) 12:21:34 437.505/2401.250
LO-87 18 Dec 12:15:32 12:18:32 26° 286° (WNW) 12:21:32 145.935 - 145.965
AO-91 18 Dec 12:19:18 12:22:13 16° 72° (ENE) 12:24:58 145.960
BUGSAT 1 18 Dec 12:26:14 12:29:53 33° 74° (ENE) 12:33:31 437.445
NANOSAT C BR1 18 Dec 12:31:24 12:35:03 29° 262° (W) 12:38:42 145.865
RS-15 18 Dec 12:43:11 12:53:34 34° 105° (ESE) 13:03:58 29.354- 29.394
EO-79 18 Dec 12:50:57 12:53:26 15° 265° (W) 12:55:54 145.935-145.965
Gurwin Techsat 1B 18 Dec 13:14:43 13:19:50 51° 74° (ENE) 13:24:59 435.225
VELOX 1 18 Dec 13:27:23 13:31:44 65° 285° (WNW) 13:36:03 145.980
50 SAT 18 Dec 13:35:34 13:38:01 21° 97° (E) 13:40:28 437.505
SPROUT 18 Dec 13:35:43 13:39:15 26° 288° (WNW) 13:42:47 437.525
NO-84 18 Dec 13:37:29 13:41:22 89° 22° (NNE) 13:45:30 435.350 FM
Oscar 19 18 Dec 13:38:16 13:43:20 63° 259° (WSW) 13:48:27 437.125/150
YUBILEINY 18 Dec 13:45:28 13:53:49 46° 79° (E) 14:02:03 435.215
UKube-1 18 Dec 13:45:39 13:48:42 19° 96° (E) 13:51:44 .
SO-50 18 Dec 13:48:19 13:52:23 35° 112° (ESE) 13:56:27 436.795
AO-91 18 Dec 13:53:49 13:58:23 38° 260° (W) 14:02:35 145.960
BUGSAT 1 18 Dec 14:03:36 14:05:16 12° 265° (W) 14:06:56 437.445
DX 1 18 Dec 14:09:29 14:13:48 69° 102° (ESE) 14:18:05 434.975-435.025
AO-7 18 Dec 14:25:27 14:33:05 43° 66° (ENE) 14:40:46 .
MOZHAYETS 4 18 Dec 14:27:46 14:29:25 12° 94° (E) 14:31:03
M-CUBED/EXP-1 PRIME 18 Dec 14:31:40 14:35:10 24° 66° (ENE) 14:38:48 437.505
RS-15 18 Dec 14:53:17 15:05:20 60° 301° (WNW) 15:17:27 29.354- 29.394
Gurwin Techsat 1B 18 Dec 14:57:10 14:59:58 14° 266° (W) 15:02:45 435.225
ITAMSAT 1 18 Dec 15:00:08 15:04:53 37° 72° (ENE) 15:09:38 435.822/435.867
50 SAT 18 Dec 15:08:49 15:09:39 11° 289° (WNW) 15:10:29 437.505
UKube-1 18 Dec 15:21:03 15:24:37 26° 288° (WNW) 15:28:10 .
BEESAT 18 Dec 15:24:24 15:28:46 36° 99° (E) 15:33:08 436.000
SO-50 18 Dec 15:29:53 15:32:53 18° 306° (NW) 15:35:55 436.795
YUBILEINY 18 Dec 15:42:53 15:50:10 30° 274° (W) 15:57:26 435.215
ITUPSAT 1 18 Dec 15:55:24 16:00:12 82° 102° (ESE) 16:04:59 437.325
DOVE 4 18 Dec 15:59:07 16:03:31 28° 72° (ENE) 16:07:49 437.250
CUBESAT XI-V 18 Dec 16:00:27 16:04:36 31° 98° (E) 16:08:44 437.345
MOZHAYETS 4 18 Dec 16:02:16 16:06:42 47° 285° (WNW) 16:11:09
M-CUBED/EXP-1 PRIME 18 Dec 16:05:51 16:09:21 24° 260° (W) 16:13:01 437.505
AO-7 18 Dec 16:18:30 16:25:47 34° 260° (W) 16:33:08 .
PCSat 18 Dec 16:40:14 16:44:01 19° 105° (ESE) 16:47:47 145.827
ITAMSAT 1 18 Dec 16:40:40 16:44:21 19° 264° (W) 16:48:03 435.822/435.867
LilacSat-2 18 Dec 16:58:22 17:00:34 15° 71° (ENE) 17:02:47 437.200
CUTE-I 18 Dec 16:59:03 17:02:24 17° 67° (ENE) 17:05:46 437.470
BEESAT 18 Dec 17:03:06 17:06:12 18° 291° (WNW) 17:09:19 436.000
KAITUO 1B 18 Dec 17:04:31 17:05:17 10° 69° (ENE) 17:06:02 145.475/437.950
XW-2D 18 Dec 17:06:05 17:08:40 18° 72° (ENE) 17:11:17 145.860 - 145.880
ISS 18 Dec 17:09:32 17:12:17 24° 40° (NE) 17:15:01 437.550
RS-15 18 Dec 17:14:23 17:21:00 16° 326° (NNW) 17:27:38 29.354- 29.394
KKS-1 18 Dec 17:19:47 17:23:55 39° 99° (E) 17:28:02 437.445
XW-2B 18 Dec 17:21:26 17:24:39 27° 73° (ENE) 17:27:54 145.730 - 145.750
XW-2F 18 Dec 17:29:16 17:32:38 32° 74° (ENE) 17:36:03 145.980 - 146.000
DOVE 4 18 Dec 17:36:36 17:41:00 27° 263° (W) 17:45:20 437.250
CUBESAT XI-V 18 Dec 17:38:23 17:41:41 19° 290° (WNW) 17:44:59 437.345
nSIGHT-1 18 Dec 17:47:13 17:50:25 77° 228° (SW) 17:53:36 .
XW-2C 18 Dec 17:48:31 17:52:15 70° 77° (ENE) 17:56:03 145.795 - 145.815
STARS 18 Dec 17:50:04 17:53:56 31° 98° (E) 17:57:48 437.465
O/OREOS (USA 219) 18 Dec 17:54:35 17:58:58 52° 70° (ENE) 18:03:18 437.305
HO-68 18 Dec 18:01:15 18:07:43 38° 68° (ENE) 18:14:12 435.675
PCSat 18 Dec 18:21:57 18:27:01 41° 298° (WNW) 18:32:07 145.827
NUDT-PHONESAT 18 Dec 18:23:14 18:26:51 56° 260° (W) 18:30:29 437.300
CUBEBUG 2 18 Dec 18:25:01 18:28:16 22° 72° (ENE) 18:31:30 437.445
CUTE 1.7 + AOD 2 18 Dec 18:25:17 18:29:17 41° 75° (ENE) 18:33:18 437.475
LilacSat-2 18 Dec 18:31:23 18:34:33 25° 263° (W) 18:37:46 437.200
KAITUO 1B 18 Dec 18:35:24 18:38:50 35° 262° (W) 18:42:18 145.475/437.950
CUTE-I 18 Dec 18:36:52 18:42:00 47° 260° (W) 18:47:09 437.470
XW-2D 18 Dec 18:39:46 18:42:38 21° 264° (W) 18:45:31 145.860 - 145.880
ISS 18 Dec 18:46:10 18:48:38 20° 233° (SW) 18:51:04 437.550
BEESAT 3 18 Dec 18:53:55 18:57:52 89° 299° (WNW) 19:01:52 437.485
XW-2B 18 Dec 18:56:55 18:58:47 13° 266° (W) 19:00:40 145.730 - 145.750
KKS-1 18 Dec 18:57:50 19:00:04 14° 292° (WNW) 19:02:17 437.445
AO-73 18 Dec 19:02:17 19:04:14 13° 69° (ENE) 19:06:13 145.935
XW-2F 18 Dec 19:05:46 19:06:47 11° 266° (W) 19:07:48 145.980 - 146.000
FALCONSAT 3 18 Dec 19:12:56 19:16:15 32° 150° (SSE) 19:19:35 435.103
XW-2A 18 Dec 19:20:34 19:23:42 40° 75° (ENE) 19:26:52 145.665 - 145.685
STARS 18 Dec 19:27:14 19:29:58 16° 291° (WNW) 19:32:41 437.465
SEEDS 18 Dec 19:28:46 19:32:51 51° 260° (W) 19:36:59 437.485
AAUSAT CUBESAT 2 18 Dec 19:33:27 19:37:34 67° 77° (ENE) 19:41:44 437.432
BEESAT 2 18 Dec 19:45:00 19:48:59 87° 117° (ESE) 19:53:02 435.950
STRAND 1 18 Dec 19:48:51 19:53:57 73° 102° (ESE) 19:59:02 437.568
HO-68 18 Dec 19:49:04 19:55:20 32° 262° (W) 20:01:38 435.675
UWE-3 18 Dec 19:50:27 19:54:31 53° 260° (W) 19:58:33 435.000/436.395/437.385
CUBEBUG 2 18 Dec 20:01:38 20:04:45 20° 264° (W) 20:07:51 437.445
CUTE 1.7 + AOD 2 18 Dec 20:03:55 20:05:13 11° 267° (W) 20:06:31 437.475
ZACube-1 18 Dec 20:04:54 20:09:01 77° 259° (WSW) 20:13:10 437.345
Oscar 11 18 Dec 20:16:10 20:20:28 76° 76° (ENE) 20:24:47 .
FO-29 18 Dec 20:17:47 20:23:41 40° 97° (E) 20:28:56 435.910
AO-73 18 Dec 20:36:22 20:40:07 34° 262° (W) 20:43:53 145.935
AO-85 18 Dec 20:40:28 20:44:17 74° 115° (ESE) 20:48:15 145.980
Max Valier Satellite 18 Dec 20:40:59 20:42:37 13° 70° (ENE) 20:44:13 145.860
FALCONSAT 3 18 Dec 20:51:36 20:55:14 58° 343° (NNW) 20:58:53 435.103
EO-88 18 Dec 20:57:39 20:59:32 14° 71° (ENE) 21:01:27 145.990 - 145.960
DELFI C3 18 Dec 21:26:32 21:30:31 85° 261° (W) 21:34:31 145.870
TIGRISAT 18 Dec 21:44:08 21:48:10 34° 98° (E) 21:52:16 435.000
UNISAT 6 18 Dec 21:48:35 21:52:48 43° 100° (E) 21:57:06 437.425
RS-15 18 Dec 21:52:42 22:01:30 23° 42° (NE) 22:09:55 29.354- 29.394
FO-29 18 Dec 22:03:29 22:08:20 23° 295° (WNW) 22:12:48 435.910
Max Valier Satellite 18 Dec 22:12:58 22:16:06 27° 263° (W) 22:19:15 145.860
EO-88 18 Dec 22:29:54 22:32:53 24° 263° (W) 22:35:55 145.990 - 145.960
FALCONSAT 3 18 Dec 22:31:18 22:34:39 32° 358° (N) 22:38:01 435.103
PRISM 18 Dec 22:36:51 22:40:39 37° 99° (E) 22:44:24 437.425
LO-87 18 Dec 22:44:48 22:48:07 39° 75° (ENE) 22:51:25 145.935 - 145.965
ESTCUBE 1 18 Dec 23:05:41 23:10:07 59° 76° (ENE) 23:14:35 437.505/2401.250
AIST 2D 18 Dec 23:06:10 23:09:15 28° 97° (E) 23:12:19 435.315
TIGRISAT 18 Dec 23:21:52 23:24:32 16° 290° (WNW) 23:27:14 435.000
UNISAT 6 18 Dec 23:27:11 23:29:05 13° 291° (WNW) 23:31:01 437.425
POLYITAN 1 18 Dec 23:29:26 23:32:05 16° 95° (E) 23:34:43 437.675
DUCHIFAT 1 18 Dec 23:52:09 23:55:31 23° 97° (E) 23:58:52 145.980
QB50P2 18 Dec 23:54:24 23:58:22 38° 99° (E) 00:02:19 145.880/145.840
RS-15 19 Dec 00:03:52 00:15:31 89° 245° (WSW) 00:26:34 29.354- 29.394
JUGNU 19 Dec 00:04:17 00:06:57 13° 162° (SSE) 00:09:36 437.505
SO-50 19 Dec 00:04:41 00:09:24 81° 62° (ENE) 00:14:09 436.795
FALCONSAT 3 19 Dec 00:10:34 00:14:08 47° 13° (NNE) 00:17:42 435.103
PRISM 19 Dec 00:13:57 00:15:30 12° 292° (WNW) 00:17:02 437.425
VELOX 1 19 Dec 00:18:09 00:22:27 50° 75° (ENE) 00:26:45 145.980
NANOSAT C BR1 19 Dec 00:20:42 00:24:53 66° 101° (ESE) 00:29:04 145.865
SPROUT 19 Dec 00:21:50 00:26:03 79° 256° (WSW) 00:30:18 437.525
EO-79 19 Dec 00:39:22 00:43:31 60° 284° (WNW) 00:47:41 145.935-145.965
AIST 2D 19 Dec 00:41:00 00:42:04 11° 290° (WNW) 00:43:08 435.315
DX 1 19 Dec 00:59:15 01:02:57 27° 72° (ENE) 01:06:38 434.975-435.025
POLYITAN 1 19 Dec 01:04:08 01:07:49 29° 287° (WNW) 01:11:29 437.675
50 SAT 19 Dec 01:26:17 01:29:23 60° 77° (ENE) 01:32:30 437.505
DUCHIFAT 1 19 Dec 01:27:51 01:30:58 21° 289° (WNW) 01:34:06 145.980
QB50P2 19 Dec 01:31:52 01:33:45 13° 291° (WNW) 01:35:37 145.880/145.840
Gurwin Techsat 1B 19 Dec 01:37:17 01:42:03 33° 98° (E) 01:46:47 435.225
BUGSAT 1 19 Dec 01:48:16 01:52:15 56° 284° (WNW) 01:56:17 437.445
AO-91 19 Dec 01:49:35 01:52:55 63° 101° (E) 01:56:21 145.960
FALCONSAT 3 19 Dec 01:49:42 01:53:13 45° 207° (SSW) 01:56:44 435.103
JUGNU 19 Dec 01:50:42 01:55:23 25° 170° (S) 02:00:04 437.505
Oscar 19 19 Dec 01:55:47 02:01:00 77° 102° (ESE) 02:06:11 437.125/150
VELOX 1 19 Dec 01:58:32 01:59:03 10° 266° (W) 01:59:34 145.980
UKube-1 19 Dec 02:08:22 02:12:39 70° 258° (WSW) 02:16:58 .
RS-15 19 Dec 02:20:21 02:26:08 16° 261° (W) 02:31:49 29.354- 29.394
BEESAT 19 Dec 02:25:28 02:29:02 22° 70° (ENE) 02:32:37 436.000
AO-7 19 Dec 02:35:18 02:40:49 19° 96° (E) 02:46:18 .
DX 1 19 Dec 02:35:57 02:39:02 19° 264° (W) 02:42:07 434.975-435.025
YUBILEINY 19 Dec 02:38:05 02:46:44 64° 91° (E) 02:55:25 435.215
SRMSAT 19 Dec 02:49:27 02:51:41 12° 161° (SSE) 02:53:56 437.500
ITUPSAT 1 19 Dec 02:56:04 03:00:36 47° 74° (ENE) 03:05:09 437.325
MOZHAYETS 4 19 Dec 02:57:33 03:02:05 78° 78° (ENE) 03:06:39
CUBESAT XI-V 19 Dec 02:58:50 03:01:39 16° 69° (ENE) 03:04:27 437.345
PCSat 19 Dec 03:15:34 03:20:44 44° 62° (ENE) 03:25:51 145.827
Gurwin Techsat 1B 19 Dec 03:17:39 03:21:44 23° 291° (WNW) 03:25:49 435.225
ITAMSAT 1 19 Dec 03:19:36 03:23:30 21° 97° (E) 03:27:22 435.822/435.867
JUGNU 19 Dec 03:38:49 03:43:55 31° 180° (S) 03:49:01 437.505
M-CUBED/EXP-1 PRIME 19 Dec 03:49:32 03:53:33 41° 103° (ESE) 03:57:17 437.505
BEESAT 19 Dec 04:02:30 04:06:35 28° 262° (W) 04:10:40 436.000
KKS-1 19 Dec 04:12:46 04:15:46 18° 70° (ENE) 04:18:46 437.445
AO-7 19 Dec 04:25:40 04:34:00 71° 290° (WNW) 04:42:18 .
CUBESAT XI-V 19 Dec 04:34:20 04:38:38 37° 262° (W) 04:42:59 437.345
SRMSAT 19 Dec 04:35:35 04:40:18 24° 168° (SSE) 04:45:01 437.500
ITUPSAT 1 19 Dec 04:36:33 04:38:34 13° 266° (W) 04:40:35 437.325
YUBILEINY 19 Dec 04:37:38 04:43:59 22° 287° (WNW) 04:50:25 435.215
STARS 19 Dec 04:42:11 04:44:25 14° 68° (ENE) 04:46:39 437.465
NO-84 19 Dec 04:48:02 04:50:48 50° 311° (NW) 04:53:41 435.350 FM
BEESAT 3 19 Dec 04:53:17 04:57:09 64° 245° (WSW) 05:00:54 437.485
ITAMSAT 1 19 Dec 04:58:20 05:02:55 33° 289° (WNW) 05:07:30 435.822/435.867
PCSat 19 Dec 05:00:08 05:03:42 18° 255° (WSW) 05:07:15 145.827
AO-85 19 Dec 05:17:29 05:20:31 16° 54° (NE) 05:23:37 145.980
M-CUBED/EXP-1 PRIME 19 Dec 05:25:33 05:27:24 13° 298° (WNW) 05:29:13 437.505
JUGNU 19 Dec 05:27:43 05:32:27 26° 190° (S) 05:37:13 437.505
XW-2C 19 Dec 05:28:53 05:30:14 12° 94° (E) 05:31:34 145.795 - 145.815
DOVE 4 19 Dec 05:41:17 05:45:27 51° 285° (WNW) 05:49:28 437.250
BEESAT 2 19 Dec 05:45:31 05:49:29 66° 244° (WSW) 05:53:21 435.950
KKS-1 19 Dec 05:48:07 05:52:02 30° 262° (W) 05:55:58 437.445
NUDT-PHONESAT 19 Dec 05:59:37 06:02:22 19° 96° (E) 06:05:06 437.300
LilacSat-2 19 Dec 06:09:38 06:13:23 49° 100° (E) 06:17:07 437.200
KAITUO 1B 19 Dec 06:12:02 06:15:25 31° 98° (E) 06:18:46 145.475/437.950
STARS 19 Dec 06:16:16 06:20:21 38° 260° (W) 06:24:27 437.465
XW-2D 19 Dec 06:16:52 06:20:40 59° 100° (E) 06:24:25 145.860 - 145.880
CUTE 1.7 + AOD 2 19 Dec 06:18:09 06:19:37 12° 93° (E) 06:21:06 437.475
AO-7 19 Dec 06:22:54 06:25:16 11° 306° (NW) 06:27:40 .
SRMSAT 19 Dec 06:23:47 06:29:01 32° 178° (S) 06:34:16 437.500
O/OREOS (USA 219) 19 Dec 06:23:58 06:26:05 13° 99° (E) 06:28:11 437.305
FO-29 19 Dec 06:25:35 06:28:25 12° 60° (ENE) 06:31:16 435.910
XW-2B 19 Dec 06:32:54 06:36:45 84° 282° (WNW) 06:40:34 145.730 - 145.750
XW-2F 19 Dec 06:40:24 06:44:12 69° 283° (WNW) 06:47:57 145.980 - 146.000
AO-85 19 Dec 06:56:16 07:01:09 55° 246° (WSW) 07:06:17 145.980
STRAND 1 19 Dec 06:58:38 07:03:37 55° 74° (ENE) 07:08:36 437.568
CUTE-I 19 Dec 06:59:49 07:05:07 70° 284° (WNW) 07:10:21 437.470
XW-2C 19 Dec 07:00:59 07:04:26 32° 286° (WNW) 07:07:51 145.795 - 145.815
JUGNU 19 Dec 07:18:00 07:20:54 14° 198° (SSW) 07:23:50 437.505
SEEDS 19 Dec 07:18:23 07:22:21 39° 99° (E) 07:26:17 437.485
HO-68 19 Dec 07:22:13 07:29:22 70° 103° (ESE) 07:36:28 435.675
AAUSAT CUBESAT 2 19 Dec 07:22:34 07:25:10 16° 95° (E) 07:27:45 437.432
NUDT-PHONESAT 19 Dec 07:33:23 07:36:01 18° 288° (WNW) 07:38:38 437.300
UWE-3 19 Dec 07:45:17 07:49:33 45° 99° (E) 07:53:54 435.000/436.395/437.385
KAITUO 1B 19 Dec 07:47:35 07:49:01 12° 290° (WNW) 07:50:27 145.475/437.950
CUTE 1.7 + AOD 2 19 Dec 07:51:32 07:55:33 40° 285° (WNW) 07:59:32 437.475
CUBEBUG 2 19 Dec 07:56:26 08:00:47 66° 283° (WNW) 08:05:15 437.445
ZACube-1 19 Dec 07:58:51 08:02:51 32° 98° (E) 08:06:53 437.345
O/OREOS (USA 219) 19 Dec 08:00:43 08:05:02 40° 291° (WNW) 08:09:21 437.305
FO-29 19 Dec 08:04:28 08:12:10 77° 74° (ENE) 08:20:01 435.910
Oscar 11 19 Dec 08:09:58 08:13:22 22° 96° (E) 08:16:46 .
ISS 19 Dec 08:10:10 08:11:36 12° 125° (SE) 08:13:03 437.550
SRMSAT 19 Dec 08:12:45 08:17:44 27° 189° (S) 08:22:45 437.500
XW-2A 19 Dec 08:19:50 08:23:15 73° 282° (WNW) 08:26:39 145.665 - 145.685
AO-73 19 Dec 08:29:10 08:33:35 67° 100° (E) 08:38:05 145.935
TIGRISAT 19 Dec 08:38:36 08:40:49 14° 69° (ENE) 08:43:02 435.000
STRAND 1 19 Dec 08:40:58 08:43:00 12° 266° (W) 08:45:02 437.568
UNISAT 6 19 Dec 08:42:38 08:45:30 18° 71° (ENE) 08:48:22 437.425
nSIGHT-1 19 Dec 08:43:41 08:46:47 50° 131° (SE) 08:49:54 .
SEEDS 19 Dec 08:55:53 08:57:35 12° 291° (WNW) 08:59:18 437.485
AAUSAT CUBESAT 2 19 Dec 08:57:02 09:00:33 27° 287° (WNW) 09:04:02 437.432
DELFI C3 19 Dec 09:10:06 09:12:48 18° 96° (E) 09:15:30 145.870
HO-68 19 Dec 09:11:57 09:16:20 18° 298° (WNW) 09:20:43 435.675
PRISM 19 Dec 09:21:49 09:23:37 13° 69° (ENE) 09:25:25 437.425
UWE-3 19 Dec 09:23:49 09:25:34 12° 291° (WNW) 09:27:20 435.000/436.395/437.385
ZACube-1 19 Dec 09:35:56 09:38:49 17° 289° (WNW) 09:41:44 437.345
ISS 19 Dec 09:44:43 09:47:47 36° 317° (NW) 09:50:52 437.550
Oscar 11 19 Dec 09:45:56 09:49:21 23° 288° (WNW) 09:52:44 .
Max Valier Satellite 19 Dec 09:47:57 09:51:27 37° 99° (E) 09:54:55 145.860
FO-29 19 Dec 09:52:54 09:57:37 17° 268° (W) 10:02:23 435.910
SRMSAT 19 Dec 10:02:55 10:06:24 16° 197° (SSW) 10:09:53 437.500
EO-88 19 Dec 10:03:28 10:06:55 38° 99° (E) 10:10:20 145.990 - 145.960
TIGRISAT 19 Dec 10:13:16 10:17:10 34° 261° (W) 10:21:03 435.000
UNISAT 6 19 Dec 10:18:19 10:21:58 27° 262° (W) 10:25:36 437.425
nSIGHT-1 19 Dec 10:21:50 10:23:10 12° 325° (NW) 10:24:31 .
QB50P2 19 Dec 10:42:38 10:44:43 14° 69° (ENE) 10:46:48 145.880/145.840
DELFI C3 19 Dec 10:44:23 10:47:24 22° 288° (WNW) 10:50:26 145.870
PRISM 19 Dec 10:54:37 10:58:29 37° 261° (W) 11:02:21 437.425
ESTCUBE 1 19 Dec 11:04:55 11:08:16 20° 96° (E) 11:11:35 437.505/2401.250
AIST 2D 19 Dec 11:06:25 11:09:55 83° 260° (W) 11:13:27 435.315
